STARLINK-34991

Last updated on Tue Sep 16 2025 00:02:08 GMT+0000 (Coordinated Universal Time)

1 65446U 25194N 25258.01969468 .00693882 00000+0 35082-2 0 9996 2 65446 97.5975 109.3516 0006231 14.0756 346.0683 15.79742898 3091
UTC large
Height (km)
Speed (km/s)
/
Latitude / Longitude
Inclination (degrees)
Orbital Period (minutes)
Azimuth
Elevation
Range (km)
Doppler Factor

Next 0 passes for location: London (51.5072 / 0.1276)

Sorry there are no passes over London.